DELTA 1 R/B, 341

Orbit data source: Space-Track

DELTA 1 R/B, 341 is space debris in LEO originally from a launch on Tue, 10 Jul 1962 UTC launched from the Air Force Eastern Test Range (AFETR). Debris objects in space refer to the collection of defunct objects orbiting the Earth. Examples of debris include non-operational satellites, rocket bodies, and fragments generated from explosions, collisions, or faulty payload assembly.

Loading next visibility...
Identifier
341, 1962-029B
Orbit
LEO
Country
Flag of USUS
Related business
Manufacturer
ABL
Mission
Spacecraft
Bus & Motor
ALTAIR, Unknown motor
Mass
24 kg wet, 24 kg dry
Launch date (UTC)
1962-07-10 (64 years ago)
Launch vehicle
Unknown
Launch site
Air Force Eastern Test Range (AFETR)
Object type
Payload
Rocket body
Debris
Shape & HBR
CYL, 1.1 m
Radar Cross Section
Medium (>0.1 m² and <1 m²)

Expand to show TLE details & history
Last TLE update: 15 hours ago

TLE from 15 hours ago
0 DELTA 1 R/B
1 00341U 62029B   26255.20479738 -.00000092  00000-0 -33702-3 0  9998
2 00341  44.7921  52.9362 2420977  74.6990  65.2668  9.14329249143093
Epoch: 2026-09-12T04:54Z
TLE epoch observation values (Epoch: 2026-09-12T04:54:54.493Z)
Latitude
8.65215°
Longitude
159.21289°
Altitude
2,830.556 km
Speed
6.733 km/s
True Right ascension
14h 56m 37s
True Declination
8° 36' 45"
Sunlit
Object was in daylight at epoch
Visualization orbit readout
Latitude
Unknown
Longitude
Unknown
Altitude
Unknown
Speed
Unknown
Apparent Right ascension
Unknown
Apparent Declination
Unknown
Sunlit
N/A
Visualization observer readout
Local Sidereal Time
12:40:00
Azimuth
Unknown
Elevation
Unknown
Doppler factor
Unknown
Orbital elements
Apogee altitude
5,622.753 km
Perigee altitude
944.557 km
Semi-major axis
9,661.792 km
Eccentricity
0.2421
Inclination
44.7921°
RAAN
52.9362°
Arg. of periapsis
74.699°
True anomaly
92.95772°
Mean anomaly
65.2668°
Eccentric anomaly
78.87743°
Mean motion
2.28537 °/min
Orbital period
157.52 mins
BSTAR
-0.00033702
Loading maneuver chart data...
Computing Atmospheric mass density...
Loading historical data...
Loading historical data...
Loading historical data...
Loading historical data...
Loading historical data...
Loading historical data...
Loading historical data...
Other satellites on launch #29 in the year 1962 (1962-07-10 UTC)

Documentation

Showing up to 5 results
|